FW4540 Weather Reports


Display with metric or nautical units.
time (UTC)temp
F
wind
direction
speed
MPH
gust
MPH
rain 1hr
in
rain 24hr
in
rain mn
in
humidity
%
barometer
mb
20260904005012 58 0 0.0 0.0 0.00 0.00 0.00 87 21.5
20260904004013 59 0 0.0 0.0 0.00 0.00 0.00 86 21.6
20260904003012 60 0 0.0 0.0 0.00 0.00 0.00 86 21.6
20260904002012 60 0 0.0 0.0 0.00 0.00 0.00 85 21.8
20260904001012 60 0 0.0 0.0 0.00 0.00 0.00 84 21.8
20260904000013 61 0 0.0 0.0 0.00 0.00 0.00 84 21.8
20260903235012 59 0 0.0 0.0 0.00 0.00 0.00 86 21.8
20260903234012 60 0 0.0 0.0 0.00 0.00 0.00 84 21.9
20260903233012 61 0 0.0 0.0 0.00 0.00 0.00 84 21.9
20260903232012 62 0 0.0 0.0 0.00 0.00 0.00 82 21.8
20260903231012 61 0 0.0 0.0 0.00 0.00 0.00 83 21.8
20260903230013 61 0 0.0 0.0 0.00 0.00 0.00 84 21.8
20260903225012 61 0 0.0 0.0 0.00 0.00 0.00 82 21.9
20260903224012 63 0 0.0 0.0 0.00 0.00 0.00 79 22.1
20260903223012 62 0 0.0 0.0 0.00 0.00 0.00 80 22.1
20260903222012 63 0 0.0 0.0 0.00 0.00 0.00 79 22.0
20260903220012 64 0 0.0 0.0 0.00 0.00 0.00 78 22.0
20260903214012 64 0 0.0 0.0 0.00 0.00 0.00 77 22.1
20260903213012 64 0 0.0 0.0 0.00 0.00 0.00 77 22.1
20260903212012 65 0 0.0 0.0 0.00 0.00 0.00 75 22.1
20260903211012 65 0 0.0 0.0 0.00 0.00 0.00 74 22.1
20260903205012 65 0 0.0 0.0 0.00 0.00 0.00 74 22.1
20260903204012 65 0 0.0 0.0 0.00 0.00 0.00 73 22.1
20260903203012 67 0 0.0 0.0 0.00 0.00 0.00 71 22.1
20260903202014 67 0 0.0 0.0 0.00 0.00 0.00 72 22.0
20260903201012 67 0 0.0 0.0 0.00 0.00 0.00 70 22.0
20260903200021 67 0 0.0 0.0 0.00 0.00 0.00 70 21.9
20260903195012 68 0 0.0 0.0 0.00 0.00 0.00 68 21.9
20260903194012 69 0 0.0 0.0 0.00 0.00 0.00 67 22.0
20260903193012 69 0 0.0 0.0 0.00 0.00 0.00 67 21.8
20260903191012 70 0 0.0 0.0 0.00 0.00 0.00 65 21.7
20260903190013 70 0 0.0 0.0 0.00 0.00 0.00 64 21.6
20260903185012 71 0 0.0 0.0 0.00 0.00 0.00 63 21.5
20260903184013 73 0 0.0 0.0 0.00 0.00 0.00 59 21.4
20260903182012 75 0 0.0 0.0 0.00 0.00 0.00 55 21.3
20260903180012 79 225 0.0 2.0 0.00 0.00 0.00 46 21.3
20260903175012 81 225 0.0 2.0 0.00 0.00 0.00 45 21.3
20260903174012 82 225 1.0 4.0 0.00 0.00 0.00 44 21.3
20260903173012 82 225 1.0 3.0 0.00 0.00 0.00 43 21.3
20260903172012 83 270 0.0 3.0 0.00 0.00 0.00 43 21.3
20260903171012 83 247 1.0 3.0 0.00 0.00 0.00 43 21.3
20260903170012 84 270 0.0 2.0 0.00 0.00 0.00 42 21.4
20260903165012 84 270 1.0 4.0 0.00 0.00 0.00 41 21.5
20260903164012 84 270 2.0 7.0 0.00 0.00 0.00 41 21.4
20260903163013 84 270 3.0 7.0 0.00 0.00 0.00 41 21.5
20260903162012 84 292 1.0 4.0 0.00 0.00 0.00 41 21.5
20260903161012 85 247 3.0 9.0 0.00 0.00 0.00 40 21.6
20260903160012 85 247 1.0 4.0 0.00 0.00 0.00 39 21.6
20260903155012 85 270 2.0 8.0 0.00 0.00 0.00 39 21.7
20260903153012 84 225 4.0 9.0 0.00 0.00 0.00 42 21.7
20260903152012 84 225 2.0 8.0 0.00 0.00 0.00 42 21.8
20260903151012 84 247 1.0 5.0 0.00 0.00 0.00 41 21.8
20260903150012 84 225 5.0 9.0 0.00 0.00 0.00 42 21.9
20260903145012 84 225 4.0 11.0 0.00 0.00 0.00 41 21.9
20260903144012 85 270 4.0 10.0 0.00 0.00 0.00 39 21.8
20260903142012 86 315 3.0 14.0 0.00 0.00 0.00 38 21.9
20260903134012 86 270 4.0 9.0 0.00 0.00 0.00 38 22.2
20260903133012 85 225 3.0 8.0 0.00 0.00 0.00 37 22.3
20260903132012 86 270 3.0 6.0 0.00 0.00 0.00 37 22.3
20260903131012 83 270 3.0 7.0 0.00 0.00 0.00 40 22.3
20260903130012 83 225 5.0 10.0 0.00 0.00 0.00 40 22.4
20260903124012 84 247 2.0 9.0 0.00 0.00 0.00 41 22.4
20260903123012 83 247 2.0 8.0 0.00 0.00 0.00 42 22.5
20260903122012 82 202 2.0 6.0 0.00 0.00 0.00 41 22.7
20260903121012 81 225 4.0 10.0 0.00 0.00 0.00 42 22.8
20260903120012 82 202 1.0 4.0 0.00 0.00 0.00 44 22.8
20260903115012 81 225 2.0 6.0 0.00 0.00 0.00 43 23.1
20260903114012 82 270 2.0 7.0 0.00 0.00 0.00 41 23.2
20260903113012 83 225 2.0 8.0 0.00 0.00 0.00 42 23.3
20260903112012 82 225 2.0 9.0 0.00 0.00 0.00 43 23.3
20260903111012 82 247 2.0 5.0 0.00 0.00 0.00 42 23.4
20260903110013 82 247 1.0 7.0 0.00 0.00 0.00 43 23.5
20260903105012 81 225 3.0 7.0 0.00 0.00 0.00 44 23.5
20260903103012 81 247 2.0 7.0 0.00 0.00 0.00 44 23.8
20260903102011 80 247 2.0 7.0 0.00 0.00 0.00 45 23.9
20260903101012 80 225 2.0 7.0 0.00 0.00 0.00 44 23.9
20260903100012 80 270 1.0 6.0 0.00 0.00 0.00 46 23.9
20260903095012 79 270 3.0 8.0 0.00 0.00 0.00 49 23.9
20260903094012 78 247 2.0 7.0 0.00 0.00 0.00 50 24.0
20260903093012 79 270 2.0 10.0 0.00 0.00 0.00 50 24.0
20260903092012 76 247 2.0 6.0 0.00 0.00 0.00 52 24.2
20260903091013 76 270 3.0 8.0 0.00 0.00 0.00 53 24.3
20260903083016 73 247 2.0 5.0 0.00 0.00 0.00 59 24.0
20260903082012 73 270 2.0 6.0 0.00 0.00 0.00 59 24.0
20260903081012 72 270 2.0 7.0 0.00 0.00 0.00 61 23.8
20260903080012 71 270 2.0 5.0 0.00 0.00 0.00 64 23.7
20260903075011 70 270 1.0 4.0 0.00 0.00 0.00 67 23.8
20260903074012 68 270 2.0 6.0 0.00 0.00 0.00 70 23.7
20260903072012 65 270 0.0 3.0 0.00 0.00 0.00 75 23.9
20260903071012 64 270 0.0 1.0 0.00 0.00 0.00 77 23.8
20260903063011 59 0 0.0 0.0 0.00 0.00 0.00 87 23.6
20260903062011 58 0 0.0 0.0 0.00 0.00 0.00 88 23.6
20260903060015 55 0 0.0 0.0 0.00 0.00 0.00 94 23.5
20260903054011 53 0 0.0 0.0 0.00 0.00 0.00 95 23.3
20260903053011 52 0 0.0 0.0 0.00 0.00 0.00 94 23.1
20260903052011 52 0 0.0 0.0 0.00 0.00 0.00 94 23.1
20260903051011 51 0 0.0 0.0 0.00 0.00 0.00 94 23.1
20260903050012 53 0 0.0 0.0 0.00 0.00 0.00 95 23.0
20260903043011 52 0 0.0 0.0 0.00 0.00 0.00 94 22.8
20260903042011 52 0 0.0 0.0 0.00 0.00 0.00 93 22.8
20260903040012 53 0 0.0 0.0 0.00 0.00 0.00 93 22.7
20260903035011 53 0 0.0 0.0 0.00 0.00 0.00 93 22.8
20260903034011 53 0 0.0 0.0 0.00 0.00 0.00 93 22.7
20260903033011 53 0 0.0 0.0 0.00 0.00 0.00 93 22.7
20260903032011 53 0 0.0 0.0 0.00 0.00 0.00 93 22.8
20260903031011 53 0 0.0 0.0 0.00 0.00 0.00 93 22.8
20260903025011 53 0 0.0 0.0 0.00 0.00 0.00 91 22.8
20260903024011 54 0 0.0 0.0 0.00 0.00 0.00 91 22.7
20260903022011 54 0 0.0 0.0 0.00 0.00 0.00 91 22.5
20260903021011 54 0 0.0 0.0 0.00 0.00 0.00 91 22.4
20260903020012 54 0 0.0 0.0 0.00 0.00 0.00 91 22.4
20260903015011 55 0 0.0 0.0 0.00 0.00 0.00 90 22.5
20260903014011 55 0 0.0 0.0 0.00 0.00 0.00 89 22.5
20260903013011 56 0 0.0 0.0 0.00 0.00 0.00 90 22.5
20260903011012 56 0 0.0 0.0 0.00 0.00 0.00 88 22.5
20260903010011 56 0 0.0 0.0 0.00 0.00 0.00 88 22.5